星链-2133 (STARLINK-2133 )

导读

STARLINK-2133是美国SpaceX公司星链(Starlink)卫星互联网项目中的一颗低轨通信卫星,于2021年1月20日发射入轨。作为星链星座组网的组成部分,它运行在近地轨道,依托相控阵天线技术提供高速低时延宽带互联网接入,助力全球偏远地区网络覆盖,支撑星链全球互联的星座布局,服务跨地域通信与互联网接入需求。

基本信息
目录编号:
47406
目录名称:
STARLINK-2133
国际标识:
2021-005BK
轨道中心:
EARTH
卫星名称:
星链-2133
卫星全名:
星链-2133 (STARLINK-2133 )
卫星状态:
已陨落 最后检测时间 2026-01-30
发射日期:
2021-01-20 UTC
国别 :
美国 (US)
星等 :
--
该卫星已列入 空间交会检测服务 Space Conjunction Data Service (SCDS) ,当前飞行风险评估等级: 无高风险
轨道信息
数据来源 国际轨道数据
星历时间: 2026-01-31T02:47:41+0800
轨道信息已过期223天
半长轴: 6554.518km
偏心率: 0.0007384
轨道倾角: 53.023°
近地点辐角 328.096°
升交点赤经 151.373°
平近点角 31.964°
近地点: 171.541km
远地点: 181.221km
周期: 88.018分钟
每日圈数: 16.360314
详细信息
固有亮度:
5
最大亮度:
2.5
卫星平台:
Starlink V1.0
覆盖范围:
全球
运营商:
太空探索技术公司
运营商所在国:
美国
制造商(研发单位):
太空探索技术公司
制造商所在国:
美国
使用方式:
暂无
卫星简介
星链(Starlink)计划是由太空探索技术公司(SpaceX)提出的一个巨型低轨卫星互联网星座项目,计划在2019年至2024年间在太空搭建由约1.2万颗卫星组成的“星链”网络,其中1584颗将部署在地球上空550千米处的近地轨道,并从2020年开始工作。该卫星仍在工作。
与全量物体交会距离演化趋势
与全量物体交会风险概率演化趋势